STARLINK-1859 (47146 NORAD) Tracking and Keplerian Element Data

This shows tracking and keplerian element data for the satellite.

Feedback or suggestion? Click here.




ElementValue
Catalog47146
NameSTARLINK-1859
Epoch Orbit180
Epoch Day20.91667824
Epoch Year2021
RAAN83.3734
Inclination53.0436
Eccentricity0.0001518
Argument of Perigee65.9882
Mean Anonmoly269.0789
Mean Motion15.0638943
Decay Rate-8.587E-05
L11 47146U 20088AA 21020.91667824 -.00008587 00000-0 -55843-3 0 9996
L22 47146 53.0436 83.3734 0001518 65.9882 269.0789 15.06389430 1805

Live tracking and technical data element details for STARLINK-1859 (NORAD 47146). STARLINK-1859 can be tracked NOW for your location showing map with azimuth and elevation plus other details from your city location.

Track the satellite on the map from your city or location and see movement details for azimuth, elevation, latitude, longitude, range, height, and movement on the map or in text.







IsCatalogInMostPopularTable: catalog: 47146, numindb: 19
Update: records affected: 1



GetName: 47146 STARLINK-1859

Hit Count: updated at: Sat, 23 Jan 2021 16:59:56 GMT